Regional Weather Roundup
Issued by NWS

Home | Current Version | Previous Version | Graphics & Text | Print | Product List | Glossary On
Versions: 1 2 3 4 5 6 7 8 9 10 11 12 13 14 15 16 17 18 19 20 21 22 23 24 25 26 27 28 29 30 31 32 33 34 35 36 37 38 39 40 41 42 43 44 45 46 47 48 49 50
000
ASUS43 KMPX 211201
RWRMN
WEATHER ROUNDUP FOR MINNESOTA
NATIONAL WEATHER SERVICE TWIN CITIES/CHANHASSEN MN
600 AM CST SUN JAN 21 2018


NOTE: "FAIR" INDICATES FEW OR NO CLOUDS BELOW 12,000 FEET WITH NO
SIGNIFICANT WEATHER AND/OR OBSTRUCTIONS TO VISIBILITY. N/A MEANS
CURRENT SKY AND/OR WEATHER CONDITIONS ARE NOT AVAILABLE.

MNZ060>063-068>070-211300-
   Twin Cities Metro

CITY           SKY/WX    TMP DP  RH WIND       PRES   REMARKS
TWIN CITIES    CLOUDY    34  31  88 N6        29.95F WCI  29
6HR MIN TEMP:  32; 6HR MAX TEMP:  37;

ST PAUL        CLOUDY    31  30  96 CALM      29.97S FOG
CRYSTAL        MOCLDY    32  27  81 CALM      29.95S
BLAINE         FAIR      34  32  93 CALM      29.96R
LAKEVILLE        N/A     28  28 100 CALM      29.95R
EDEN PRAIRIE   CLOUDY    35  29  78 N6        29.94S WCI  30
6HR MIN TEMP:  33; 6HR MAX TEMP:  37;

SOUTH ST PAUL  CLOUDY    32  31  97 CALM      29.95S
LAKE ELMO      CLOUDY    32  32 100 N3        29.96F
$$
MNZ001>005-007-008-013>017-022>024-027-028-211300-
   Northwest Minnesota

CITY           SKY/WX    TMP DP  RH WIND       PRES   REMARKS
BEMIDJI        FAIR      11   9  91 SW3       29.96R
HALLOCK        CLOUDY    19  18  93 CALM      30.03R FOG
ROSEAU         FOG       21  18  86 W3        29.99S VSB 1/2
WARROAD        CLOUDY    23  19  86 NW5       29.99R FOG     WCI  17
THIEF RVR FALL FAIR      16  14  93 NW9       29.99S FOG     WCI   4
CROOKSTON      FOG       18  16  93 N15       30.01R VSB 1/2 WCI   3
FOSSTON        FOG        9   7  92 CALM      29.98R VSB 1/4
DETROIT LAKES  FOG       23  21  93 NW5       29.97R VSB 1/4 WCI  17
MOORHEAD       FAIR      19  18  93 N7        30.00R WCI  10
PARK RAPIDS    HAZE      15   9  76 CALM      29.95R VSB 1/4
MAHNOMEN       FOG       16  14  93 CALM      29.97R VSB 1/4
$$
MNZ006-009>011-018-025>026-211300-
   North Central Minnesota

CITY           SKY/WX    TMP DP  RH WIND       PRES   REMARKS
BAUDETTE       FOG       20  19  96 NW5       29.96R VSB 3/4 WCI  13
FLAG ISLAND    CLOUDY    21  21 100 NW8       29.97R WCI  12
INTL FALLS     FAIR      10   6  84 CALM      29.94S FOG
6HR MIN TEMP:  10; 6HR MAX TEMP:  24;

WASKISH        CLOUDY    16  16 100 CALM      29.96R FOG
BIG FORK       FAIR      10   7  85 CALM      29.94S
LONGVILLE      FAIR      12  10  92 CALM      29.96R
GRAND RAPIDS   FAIR      15  14  95 CALM      29.97R
CRANE LAKE     FAIR      10   9  92 CALM      29.97S
ORR            CLOUDY    19  18  93 CALM      29.92S FOG
COOK           CLOUDY    10   9  92 CALM      29.95S
WALKER         FAIR      19  17  93 CALM      29.95S
$$
MNZ012-019>021-037-211300-
   Northeast Minnesota

CITY           SKY/WX    TMP DP  RH WIND       PRES   REMARKS
DULUTH         FAIR      26  24  92 N3        29.94R
6HR MIN TEMP:  25; 6HR MAX TEMP:  31;

HIBBING        FOG        8   6  92 CALM      29.94R VSB 1
EVELETH        FAIR       6   2  83 CALM      29.95R
DULUTH HARBOR  FAIR      28  27  93 SW3       29.98R
TWO HARBORS    FAIR      25  19  80 CALM      29.93S
SILVER BAY     FAIR      18  18 100 CALM      29.92F
GRAND MARAIS     N/A     30  29  96 CALM      29.97R
G MARAIS ARPRT FAIR      21  19  93 CALM      29.91R
$$
MNZ029>031-032-039>041-046>048-054>057-064-211300-
   West Central Minnesota

CITY           SKY/WX    TMP DP  RH WIND       PRES   REMARKS
FERGUS FALLS   FAIR      27  27 100 NE3       29.96S
WHEATON        CLOUDY    30  27  86 NW3       30.00R
MORRIS         CLOUDY    30  28  93 NW5       29.96R WCI  25
ALEXANDRIA     CLOUDY    32  28  85 N3        29.95S
ELBOW LAKE     FAIR      28  28  96 CALM      29.96S
WADENA         FOG       21  21 100 CALM      29.95S VSB 1
GLENWOOD       FAIR      32  28  86 CALM      29.95F
APPLETON       CLOUDY    34  28  80 N3        29.97S
BENSON         CLOUDY    32  28  86 CALM      29.98S
ORTONVILLE     CLOUDY    34  27  75 NW5       29.97S WCI  30
MADISON        CLOUDY    37  30  75 NW7       29.96S
WILLMAR        FAIR      34  30  86 CALM      29.98S
$$
MNZ033>034-036-042>043-049>051-058-059-211300-
   Central Minnesota

CITY           SKY/WX    TMP DP  RH WIND       PRES   REMARKS
ST CLOUD       CLOUDY    31  29  92 MISG      29.96R
6HR MIN TEMP:  31; 6HR MAX TEMP:  34;

SAUK CENTRE      N/A     30  28  92 CALM      29.95F
PAYNESVILLE    CLOUDY    30  30 100 CALM      29.96S
AITKIN         FAIR      21  19  93 CALM      29.95R
PINE RIVER     FAIR      18  16  93 CALM      29.99S
BRAINERD       FAIR      23  21  92 CALM      29.96S FOG
STAPLES        MOCLDY    25  25 100 CALM      29.96S
LONG PRAIRIE   FAIR      32  28  86 CALM      29.95S
LITTLE FALLS   CLOUDY    28  25  86 CALM      29.96S
LITCHFIELD     MOCLDY    36  30  80 CALM      29.96R
BUFFALO        CLOUDY    33  29  85 CALM      29.97R
MAPLE LAKE     CLOUDY    34  31  90 MISG      29.97R
HUTCHINSON     CLOUDY    33  31  91 N3        29.96S
$$
MNZ037-044-045-052-053-211300-
   East Central Minnesota

CITY           SKY/WX    TMP DP  RH WIND       PRES   REMARKS
PRINCETON      MOCLDY    32  28  86 CALM      29.97R
MORA           FAIR      30  27  86 CALM      29.98R
CAMBRIDGE        N/A     34  27  75 CALM      29.97R
RUSH CITY      CLOUDY    31  27  86 CALM      29.96S
MOOSE LAKE     MOCLDY    30  27  86 CALM      29.95R
HINCKLEY       CLOUDY    32  28  86 N6        29.95S WCI  26
CLOQUET        FAIR      27  23  86 CALM      29.95R
MCGREGOR       FAIR      23  21  93 CALM      29.96R
$$
MNZ071>073-080-081-089-090-097-098-211300-
   Southwest Minnesota

CITY           SKY/WX    TMP DP  RH WIND       PRES   REMARKS
MONTEVIDEO     CLOUDY    34  28  80 N5        29.97R WCI  30
GRANITE FALLS  CLOUDY    37  32  82 NW10      29.97S
CANBY          CLOUDY    37  30  75 NW3       29.97S
MARSHALL       CLOUDY    34  29  82 N5        29.95S WCI  30
REDWOOD FALLS  CLOUDY    35  29  78 N5        29.94S WCI  31
OLIVIA         CLOUDY    34  32  93 N5        29.95R WCI  30
PIPESTONE      CLOUDY    34  27  75 NE7       29.91S WCI  28
WINDOM         CLOUDY    30  16  55 NE3       29.94R
WORTHINGTON    CLOUDY    28  26  92 NE8       29.93R WCI  20
JACKSON        CLOUDY    28  27  93 N6        29.93R WCI  22
TRACY          CLOUDY    33  30  87 NW3       29.94R
SLAYTON        MOCLDY    32  28  86 CALM      29.93S
$$
MNZ065>067-074>077-082>085-091>093-211300-
   South Central Minnesota

CITY           SKY/WX    TMP DP  RH WIND       PRES   REMARKS
MANKATO        FAIR      32  28  85 N5        29.94R WCI  27
NEW ULM        PTCLDY    32  27  80 CALM      29.94R
ST JAMES       CLOUDY    27  27 100 CALM      29.95R
FAIRMONT       CLOUDY    27  26  96 N7        29.94R WCI  19
FARIBAULT      FAIR      30  28  93 CALM      29.93S
OWATONNA       FAIR      30  28  93 E3        29.93R
WASECA         FAIR      32  28  86 E3        29.94R
ALBERT LEA     FAIR      28  27  93 NE6       29.92R WCI  22
$$
MNZ078>079-086>088-094>096-211300-
   Southeast Minnesota

CITY           SKY/WX    TMP DP  RH WIND       PRES   REMARKS
ROCHESTER      MIX PCPN  29  29 100 NE6       29.92S FOG     WCI  23
6HR MIN TEMP:  26; 6HR MAX TEMP:  32; 6HR PCP: TRACE;

RED WING       CLOUDY    27  25  93 CALM      29.94F FOG
STANTON          N/A     24  23  93 CALM      29.93S FOG
DODGE CENTER   FAIR      27  27 100 CALM      29.93R FOG
WINONA         FOG       23  21  93 CALM      29.94S VSB 1/4
PRESTON        FAIR      27  26  96 N5        29.92S FOG     WCI  21
$$
ABBREVIATIONS USED IN REMARKS
   TC - TEMPERATURES IN CELSIUS
  WCI - WIND CHILL INDEX
   HX - HEAT INDEX
  VSB - VISIBILITY
$$




USA.gov is the U.S. government's official web portal to all federal, state and local government web resources and services.